Location: Bun Machan
(52.1403°N, 7.3744°W)
Time: 20:35:58
(UTC+00:00)

Tianhe-1 - Visible Passes

Search period start: 23 June 2021 00:00
Search period end: 03 July 2021 00:00
Orbit: 375 x 386 km, 41.5° (Epoch: 23 June)

Date Brightness Start Highest point End Pass type
(mag) Time Alt. Az. Time Alt. Az. Time Alt. Az.
26 Jun 3.2 03:07:54 10° SSW 03:09:15 12° S 03:10:37 10° SSE visible
27 Jun 3.5 02:09:25 10° SSE 02:09:25 10° SSE 02:09:27 10° SSE visible
28 Jun 3.1 02:43:19 12° S 02:43:29 12° S 02:44:50 10° SSE visible
